owner,sensor,date,latitude,longitude,vertical_datum,wind_speed,wind_to_direction,wind_speed_of_gust,qcFlag 
WAVCIS,ioos:station:WAVCIS:CSI03:3,2016-10-01T00:00:00Z,29.4412,-92.0613,10.0,3.887,147.0,,'11111222,11111222,99999999' 
WAVCIS,ioos:station:WAVCIS:CSI03:3,2016-10-01T01:00:00Z,29.4412,-92.0613,10.0,4.359,155.0,,'11111222,11111222,99999999' 
WAVCIS,ioos:station:WAVCIS:CSI03:3,2016-10-01T02:00:00Z,29.4412,-92.0613,10.0,5.173,155.0,,'11111222,11111222,99999999' 
WAVCIS,ioos:station:WAVCIS:CSI03:3,2016-10-01T03:00:00Z,29.4412,-92.0613,10.0,6.761,161.0,,'11111222,11111222,99999999' 
WAVCIS,ioos:station:WAVCIS:CSI03:3,2016-10-01T04:00:00Z,29.4412,-92.0613,10.0,6.242,161.0,,'11111222,11111222,99999999' 
WAVCIS,ioos:station:WAVCIS:CSI03:3,2016-10-01T05:00:00Z,29.4412,-92.0613,10.0,5.785,162.0,,'11111222,11111222,99999999' 
WAVCIS,ioos:station:WAVCIS:CSI03:3,2016-10-01T06:00:00Z,29.4412,-92.0613,10.0,6.558,165.0,,'11111222,11111222,99999999' 
WAVCIS,ioos:station:WAVCIS:CSI03:3,2016-10-01T07:00:00Z,29.4412,-92.0613,10.0,6.786,169.0,,'11111222,11111222,99999999' 
WAVCIS,ioos:station:WAVCIS:CSI03:3,2016-10-01T08:00:00Z,29.4412,-92.0613,10.0,5.464,182.0,,'11111222,11111222,99999999' 
WAVCIS,ioos:station:WAVCIS:CSI03:3,2016-10-01T09:00:00Z,29.4412,-92.0613,10.0,4.616,181.0,,'11111222,11111222,99999999' 
WAVCIS,ioos:station:WAVCIS:CSI03:3,2016-10-01T10:00:00Z,29.4412,-92.0613,10.0,4.281,183.0,,'11111222,11111222,99999999' 
WAVCIS,ioos:station:WAVCIS:CSI03:3,2016-10-01T11:00:00Z,29.4412,-92.0613,10.0,4.364,179.0,,'11111222,11111222,99999999' 
WAVCIS,ioos:station:WAVCIS:CSI03:3,2016-10-01T12:00:00Z,29.4412,-92.0613,10.0,5.023,173.0,,'11111222,11111222,99999999' 
WAVCIS,ioos:station:WAVCIS:CSI03:3,2016-10-01T13:00:00Z,29.4412,-92.0613,10.0,4.913,163.0,,'11111222,11111222,99999999' 
WAVCIS,ioos:station:WAVCIS:CSI03:3,2016-10-01T14:00:00Z,29.4412,-92.0613,10.0,5.282,157.0,,'11111222,11111222,99999999' 
WAVCIS,ioos:station:WAVCIS:CSI03:3,2016-10-01T15:00:00Z,29.4412,-92.0613,10.0,5.187,155.0,,'11111222,11111222,99999999' 
WAVCIS,ioos:station:WAVCIS:CSI03:3,2016-10-01T16:00:00Z,29.4412,-92.0613,10.0,3.784,164.0,,'11111222,11111222,99999999' 
WAVCIS,ioos:station:WAVCIS:CSI03:3,2016-10-01T17:00:00Z,29.4412,-92.0613,10.0,3.389,160.0,,'11111222,11111222,99999999' 
WAVCIS,ioos:station:WAVCIS:CSI03:3,2016-10-01T18:00:00Z,29.4412,-92.0613,10.0,3.352,157.0,,'11111222,11111222,99999999' 
WAVCIS,ioos:station:WAVCIS:CSI03:3,2016-10-01T19:00:00Z,29.4412,-92.0613,10.0,3.652,148.0,,'11111222,11111222,99999999' 
WAVCIS,ioos:station:WAVCIS:CSI03:3,2016-10-01T20:00:00Z,29.4412,-92.0613,10.0,2.04,181.0,,'11111222,11111222,99999999' 
WAVCIS,ioos:station:WAVCIS:CSI03:3,2016-10-01T21:00:00Z,29.4412,-92.0613,10.0,2.515,229.0,,'11111222,11111222,99999999' 
WAVCIS,ioos:station:WAVCIS:CSI03:3,2016-10-01T22:00:00Z,29.4412,-92.0613,10.0,2.925,231.0,,'11111222,11111222,99999999' 
WAVCIS,ioos:station:WAVCIS:CSI03:3,2016-10-01T23:00:00Z,29.4412,-92.0613,10.0,2.3,221.0,,'11111222,11111222,99999999' 
WAVCIS,ioos:station:WAVCIS:CSI03:3,2016-10-02T00:00:00Z,29.4412,-92.0613,10.0,1.647,166.0,,'11111222,11111222,99999999' 
WAVCIS,ioos:station:WAVCIS:CSI03:3,2016-10-02T01:00:00Z,29.4412,-92.0613,10.0,1.876,162.0,,'11111222,11111222,99999999' 
WAVCIS,ioos:station:WAVCIS:CSI03:3,2016-10-02T02:00:00Z,29.4412,-92.0613,10.0,2.688,147.0,,'11111222,11111222,99999999' 
WAVCIS,ioos:station:WAVCIS:CSI03:3,2016-10-02T03:00:00Z,29.4412,-92.0613,10.0,2.093,174.0,,'11111222,11111222,99999999' 
WAVCIS,ioos:station:WAVCIS:CSI03:3,2016-10-02T04:00:00Z,29.4412,-92.0613,10.0,2.984,165.0,,'11111222,11111222,99999999' 
WAVCIS,ioos:station:WAVCIS:CSI03:3,2016-10-02T05:00:00Z,29.4412,-92.0613,10.0,3.165,167.0,,'11111222,11111222,99999999' 
WAVCIS,ioos:station:WAVCIS:CSI03:3,2016-10-02T06:00:00Z,29.4412,-92.0613,10.0,3.661,155.0,,'11111222,11111222,99999999' 
WAVCIS,ioos:station:WAVCIS:CSI03:3,2016-10-02T07:00:00Z,29.4412,-92.0613,10.0,5.316,211.0,,'11111222,11111222,99999999' 
WAVCIS,ioos:station:WAVCIS:CSI03:3,2016-10-02T08:00:00Z,29.4412,-92.0613,10.0,5.981,201.0,,'11111222,11111222,99999999' 
WAVCIS,ioos:station:WAVCIS:CSI03:3,2016-10-02T09:00:00Z,29.4412,-92.0613,10.0,5.616,194.0,,'11111222,11111222,99999999' 
WAVCIS,ioos:station:WAVCIS:CSI03:3,2016-10-02T10:00:00Z,29.4412,-92.0613,10.0,5.265,167.0,,'11111222,11111222,99999999' 
WAVCIS,ioos:station:WAVCIS:CSI03:3,2016-10-02T11:00:00Z,29.4412,-92.0613,10.0,5.409,168.0,,'11111222,11111222,99999999' 
WAVCIS,ioos:station:WAVCIS:CSI03:3,2016-10-02T12:00:00Z,29.4412,-92.0613,10.0,6.742,172.0,,'11111222,11111222,99999999' 
WAVCIS,ioos:station:WAVCIS:CSI03:3,2016-10-02T13:00:00Z,29.4412,-92.0613,10.0,7.08,171.0,,'11111222,11111222,99999999' 
WAVCIS,ioos:station:WAVCIS:CSI03:3,2016-10-02T14:00:00Z,29.4412,-92.0613,10.0,7.13,173.0,,'11111222,11111222,99999999' 
WAVCIS,ioos:station:WAVCIS:CSI03:3,2016-10-02T15:00:00Z,29.4412,-92.0613,10.0,6.769,185.0,,'11111222,11111222,99999999' 
WAVCIS,ioos:station:WAVCIS:CSI03:3,2016-10-02T16:00:00Z,29.4412,-92.0613,10.0,5.585,175.0,,'11111222,11111222,99999999' 
WAVCIS,ioos:station:WAVCIS:CSI03:3,2016-10-02T17:00:00Z,29.4412,-92.0613,10.0,4.975,174.0,,'11111222,11111222,99999999' 
WAVCIS,ioos:station:WAVCIS:CSI03:3,2016-10-02T18:00:00Z,29.4412,-92.0613,10.0,4.557,203.0,,'11111222,11111222,99999999' 
WAVCIS,ioos:station:WAVCIS:CSI03:3,2016-10-02T19:00:00Z,29.4412,-92.0613,10.0,5.155,216.0,,'11111222,11111222,99999999' 
WAVCIS,ioos:station:WAVCIS:CSI03:3,2016-10-02T20:00:00Z,29.4412,-92.0613,10.0,4.341,202.0,,'11111222,11111222,99999999' 
WAVCIS,ioos:station:WAVCIS:CSI03:3,2016-10-02T21:00:00Z,29.4412,-92.0613,10.0,3.012,213.0,,'11111222,11111222,99999999' 
WAVCIS,ioos:station:WAVCIS:CSI03:3,2016-10-02T22:00:00Z,29.4412,-92.0613,10.0,3.565,223.0,,'11111222,11111222,99999999' 
WAVCIS,ioos:station:WAVCIS:CSI03:3,2016-10-02T23:00:00Z,29.4412,-92.0613,10.0,2.717,223.0,,'11111222,11111222,99999999' 
WAVCIS,ioos:station:WAVCIS:CSI03:3,2016-10-03T00:00:00Z,29.4412,-92.0613,10.0,2.488,209.0,,'11111222,11111222,99999999' 
WAVCIS,ioos:station:WAVCIS:CSI03:3,2016-10-03T01:00:00Z,29.4412,-92.0613,10.0,2.458,197.0,,'11111222,11111222,99999999' 
WAVCIS,ioos:station:WAVCIS:CSI03:3,2016-10-03T02:00:00Z,29.4412,-92.0613,10.0,3.008,168.0,,'11111222,11111222,99999999' 
WAVCIS,ioos:station:WAVCIS:CSI03:3,2016-10-03T03:00:00Z,29.4412,-92.0613,10.0,4.267,153.0,,'11111222,11111222,99999999' 
WAVCIS,ioos:station:WAVCIS:CSI03:3,2016-10-03T04:00:00Z,29.4412,-92.0613,10.0,4.86,153.0,,'11111222,11111222,99999999' 
WAVCIS,ioos:station:WAVCIS:CSI03:3,2016-10-03T05:00:00Z,29.4412,-92.0613,10.0,6.846,189.0,,'11111222,11111222,99999999' 
WAVCIS,ioos:station:WAVCIS:CSI03:3,2016-10-03T06:00:00Z,29.4412,-92.0613,10.0,6.919,204.0,,'11111222,11111222,99999999' 
WAVCIS,ioos:station:WAVCIS:CSI03:3,2016-10-03T07:00:00Z,29.4412,-92.0613,10.0,6.187,209.0,,'11111222,11111222,99999999' 
WAVCIS,ioos:station:WAVCIS:CSI03:3,2016-10-03T08:00:00Z,29.4412,-92.0613,10.0,5.766,207.0,,'11111222,11111222,99999999' 
WAVCIS,ioos:station:WAVCIS:CSI03:3,2016-10-03T09:00:00Z,29.4412,-92.0613,10.0,6.008,208.0,,'11111222,11111222,99999999' 
WAVCIS,ioos:station:WAVCIS:CSI03:3,2016-10-03T10:00:00Z,29.4412,-92.0613,10.0,4.833,207.0,,'11111222,11111222,99999999' 
WAVCIS,ioos:station:WAVCIS:CSI03:3,2016-10-03T11:00:00Z,29.4412,-92.0613,10.0,4.997,167.0,,'11111222,11111222,99999999' 
WAVCIS,ioos:station:WAVCIS:CSI03:3,2016-10-03T12:00:00Z,29.4412,-92.0613,10.0,5.691,161.0,,'11111222,11111222,99999999' 
WAVCIS,ioos:station:WAVCIS:CSI03:3,2016-10-03T13:00:00Z,29.4412,-92.0613,10.0,5.918,156.0,,'11111222,11111222,99999999' 
WAVCIS,ioos:station:WAVCIS:CSI03:3,2016-10-03T14:00:00Z,29.4412,-92.0613,10.0,6.458,152.0,,'11111222,11111222,99999999' 
WAVCIS,ioos:station:WAVCIS:CSI03:3,2016-10-03T15:00:00Z,29.4412,-92.0613,10.0,6.521,152.0,,'11111222,11111222,99999999' 
WAVCIS,ioos:station:WAVCIS:CSI03:3,2016-10-03T16:00:00Z,29.4412,-92.0613,10.0,6.438,157.0,,'11111222,11111222,99999999' 
WAVCIS,ioos:station:WAVCIS:CSI03:3,2016-10-03T17:00:00Z,29.4412,-92.0613,10.0,5.319,166.0,,'11111222,11111222,99999999' 
WAVCIS,ioos:station:WAVCIS:CSI03:3,2016-10-03T18:00:00Z,29.4412,-92.0613,10.0,5.515,192.0,,'11111222,11111222,99999999' 
WAVCIS,ioos:station:WAVCIS:CSI03:3,2016-10-03T19:00:00Z,29.4412,-92.0613,10.0,4.223,190.0,,'11111222,11111222,99999999' 
WAVCIS,ioos:station:WAVCIS:CSI03:3,2016-10-03T20:00:00Z,29.4412,-92.0613,10.0,3.476,204.0,,'11111222,11111222,99999999' 
WAVCIS,ioos:station:WAVCIS:CSI03:3,2016-10-03T21:00:00Z,29.4412,-92.0613,10.0,3.039,185.0,,'11111222,11111222,99999999' 
WAVCIS,ioos:station:WAVCIS:CSI03:3,2016-10-03T22:00:00Z,29.4412,-92.0613,10.0,2.749,182.0,,'11111222,11111222,99999999' 
WAVCIS,ioos:station:WAVCIS:CSI03:3,2016-10-03T23:00:00Z,29.4412,-92.0613,10.0,2.768,225.0,,'11111222,11111222,99999999' 
WAVCIS,ioos:station:WAVCIS:CSI03:3,2016-10-04T00:00:00Z,29.4412,-92.0613,10.0,2.469,234.0,,'11111222,11111222,99999999' 
WAVCIS,ioos:station:WAVCIS:CSI03:3,2016-10-04T01:00:00Z,29.4412,-92.0613,10.0,3.512,229.0,,'11111222,11111222,99999999' 
WAVCIS,ioos:station:WAVCIS:CSI03:3,2016-10-04T02:00:00Z,29.4412,-92.0613,10.0,5.323,235.0,,'11111222,11111222,99999999' 
WAVCIS,ioos:station:WAVCIS:CSI03:3,2016-10-04T03:00:00Z,29.4412,-92.0613,10.0,5.872,213.0,,'11111222,11111222,99999999' 
WAVCIS,ioos:station:WAVCIS:CSI03:3,2016-10-04T04:00:00Z,29.4412,-92.0613,10.0,6.37,218.0,,'11111222,11111222,99999999' 
WAVCIS,ioos:station:WAVCIS:CSI03:3,2016-10-04T05:00:00Z,29.4412,-92.0613,10.0,7.1,219.0,,'11111222,11111222,99999999' 
WAVCIS,ioos:station:WAVCIS:CSI03:3,2016-10-04T06:00:00Z,29.4412,-92.0613,10.0,5.448,224.0,,'11111222,11111222,99999999' 
WAVCIS,ioos:station:WAVCIS:CSI03:3,2016-10-04T07:00:00Z,29.4412,-92.0613,10.0,5.074,225.0,,'11111222,11111222,99999999' 
WAVCIS,ioos:station:WAVCIS:CSI03:3,2016-10-04T08:00:00Z,29.4412,-92.0613,10.0,4.527,213.0,,'11111222,11111222,99999999' 
WAVCIS,ioos:station:WAVCIS:CSI03:3,2016-10-04T09:00:00Z,29.4412,-92.0613,10.0,4.043,202.0,,'11111222,11111222,99999999' 
WAVCIS,ioos:station:WAVCIS:CSI03:3,2016-10-04T10:00:00Z,29.4412,-92.0613,10.0,5.324,198.0,,'11111222,11111222,99999999' 
WAVCIS,ioos:station:WAVCIS:CSI03:3,2016-10-04T11:00:00Z,29.4412,-92.0613,10.0,5.031,183.0,,'11111222,11111222,99999999' 
WAVCIS,ioos:station:WAVCIS:CSI03:3,2016-10-04T12:00:00Z,29.4412,-92.0613,10.0,4.746,177.0,,'11111222,11111222,99999999' 
WAVCIS,ioos:station:WAVCIS:CSI03:3,2016-10-04T13:00:00Z,29.4412,-92.0613,10.0,5.079,182.0,,'11111222,11111222,99999999' 
WAVCIS,ioos:station:WAVCIS:CSI03:3,2016-10-04T14:00:00Z,29.4412,-92.0613,10.0,6.491,192.0,,'11111222,11111222,99999999' 
WAVCIS,ioos:station:WAVCIS:CSI03:3,2016-10-04T15:00:00Z,29.4412,-92.0613,10.0,7.2,200.0,,'11111222,11111222,99999999' 
WAVCIS,ioos:station:WAVCIS:CSI03:3,2016-10-04T16:00:00Z,29.4412,-92.0613,10.0,7.28,207.0,,'11111222,11111222,99999999' 
WAVCIS,ioos:station:WAVCIS:CSI03:3,2016-10-04T17:00:00Z,29.4412,-92.0613,10.0,7.11,209.0,,'11111222,11111222,99999999' 
WAVCIS,ioos:station:WAVCIS:CSI03:3,2016-10-04T18:00:00Z,29.4412,-92.0613,10.0,5.928,206.0,,'11111222,11111222,99999999' 
WAVCIS,ioos:station:WAVCIS:CSI03:3,2016-10-04T19:00:00Z,29.4412,-92.0613,10.0,7.11,214.0,,'11111222,11111222,99999999' 
WAVCIS,ioos:station:WAVCIS:CSI03:3,2016-10-04T20:00:00Z,29.4412,-92.0613,10.0,6.738,216.0,,'11111222,11111222,99999999' 
WAVCIS,ioos:station:WAVCIS:CSI03:3,2016-10-04T21:00:00Z,29.4412,-92.0613,10.0,7.1,218.0,,'11111222,11111222,99999999' 
WAVCIS,ioos:station:WAVCIS:CSI03:3,2016-10-04T22:00:00Z,29.4412,-92.0613,10.0,7.39,217.0,,'11111222,11111222,99999999' 
WAVCIS,ioos:station:WAVCIS:CSI03:3,2016-10-04T23:00:00Z,29.4412,-92.0613,10.0,7.37,221.0,,'11111222,11111222,99999999' 
WAVCIS,ioos:station:WAVCIS:CSI03:3,2016-10-05T00:00:00Z,29.4412,-92.0613,10.0,6.904,216.0,,'11111222,11111222,99999999' 
WAVCIS,ioos:station:WAVCIS:CSI03:3,2016-10-05T01:00:00Z,29.4412,-92.0613,10.0,7.6,222.0,,'11111222,11111222,99999999' 
WAVCIS,ioos:station:WAVCIS:CSI03:3,2016-10-05T02:00:00Z,29.4412,-92.0613,10.0,6.964,222.0,,'11111222,11111222,99999999' 
WAVCIS,ioos:station:WAVCIS:CSI03:3,2016-10-05T03:00:00Z,29.4412,-92.0613,10.0,7.05,231.0,,'11111222,11111222,99999999' 
WAVCIS,ioos:station:WAVCIS:CSI03:3,2016-10-05T04:00:00Z,29.4412,-92.0613,10.0,7.62,231.0,,'11111222,11111222,99999999' 
WAVCIS,ioos:station:WAVCIS:CSI03:3,2016-10-05T05:00:00Z,29.4412,-92.0613,10.0,7.16,233.0,,'11111222,11111222,99999999' 
WAVCIS,ioos:station:WAVCIS:CSI03:3,2016-10-05T06:00:00Z,29.4412,-92.0613,10.0,6.986,230.0,,'11111222,11111222,99999999' 
WAVCIS,ioos:station:WAVCIS:CSI03:3,2016-10-05T07:00:00Z,29.4412,-92.0613,10.0,7.14,223.0,,'11111222,11111222,99999999' 
WAVCIS,ioos:station:WAVCIS:CSI03:3,2016-10-05T08:00:00Z,29.4412,-92.0613,10.0,6.493,225.0,,'11111222,11111222,99999999' 
WAVCIS,ioos:station:WAVCIS:CSI03:3,2016-10-05T09:00:00Z,29.4412,-92.0613,10.0,6.811,228.0,,'11111222,11111222,99999999' 
WAVCIS,ioos:station:WAVCIS:CSI03:3,2016-10-05T10:00:00Z,29.4412,-92.0613,10.0,5.927,224.0,,'11111222,11111222,99999999' 
WAVCIS,ioos:station:WAVCIS:CSI03:3,2016-10-05T11:00:00Z,29.4412,-92.0613,10.0,6.101,206.0,,'11111222,11111222,99999999' 
WAVCIS,ioos:station:WAVCIS:CSI03:3,2016-10-05T12:00:00Z,29.4412,-92.0613,10.0,5.548,188.0,,'11111222,11111222,99999999' 
WAVCIS,ioos:station:WAVCIS:CSI03:3,2016-10-05T13:00:00Z,29.4412,-92.0613,10.0,6.18,182.0,,'11111222,11111222,99999999' 
WAVCIS,ioos:station:WAVCIS:CSI03:3,2016-10-05T14:00:00Z,29.4412,-92.0613,10.0,6.305,188.0,,'11111222,11111222,99999999' 
WAVCIS,ioos:station:WAVCIS:CSI03:3,2016-10-05T15:00:00Z,29.4412,-92.0613,10.0,7.19,194.0,,'11111222,11111222,99999999' 
WAVCIS,ioos:station:WAVCIS:CSI03:3,2016-10-05T16:00:00Z,29.4412,-92.0613,10.0,6.576,196.0,,'11111222,11111222,99999999' 
WAVCIS,ioos:station:WAVCIS:CSI03:3,2016-10-05T17:00:00Z,29.4412,-92.0613,10.0,6.836,196.0,,'11111222,11111222,99999999' 
WAVCIS,ioos:station:WAVCIS:CSI03:3,2016-10-05T18:00:00Z,29.4412,-92.0613,10.0,5.996,190.0,,'11111222,11111222,99999999' 
WAVCIS,ioos:station:WAVCIS:CSI03:3,2016-10-05T19:00:00Z,29.4412,-92.0613,10.0,6.124,200.0,,'11111222,11111222,99999999' 
WAVCIS,ioos:station:WAVCIS:CSI03:3,2016-10-05T20:00:00Z,29.4412,-92.0613,10.0,6.258,221.0,,'11111222,11111222,99999999' 
WAVCIS,ioos:station:WAVCIS:CSI03:3,2016-10-05T21:00:00Z,29.4412,-92.0613,10.0,7.92,220.0,,'11111222,11111222,99999999' 
WAVCIS,ioos:station:WAVCIS:CSI03:3,2016-10-05T22:00:00Z,29.4412,-92.0613,10.0,7.18,219.0,,'11111222,11111222,99999999' 
WAVCIS,ioos:station:WAVCIS:CSI03:3,2016-10-05T23:00:00Z,29.4412,-92.0613,10.0,7.1,230.0,,'11111222,11111222,99999999' 
WAVCIS,ioos:station:WAVCIS:CSI03:3,2016-10-06T00:00:00Z,29.4412,-92.0613,10.0,7.7,224.0,,'11111222,11111222,99999999' 
WAVCIS,ioos:station:WAVCIS:CSI03:3,2016-10-06T01:00:00Z,29.4412,-92.0613,10.0,7.78,209.0,,'11111222,11111222,99999999' 
WAVCIS,ioos:station:WAVCIS:CSI03:3,2016-10-06T02:00:00Z,29.4412,-92.0613,10.0,8.72,214.0,,'11111222,11111222,99999999' 
WAVCIS,ioos:station:WAVCIS:CSI03:3,2016-10-06T03:00:00Z,29.4412,-92.0613,10.0,9.54,209.0,,'11111222,11111222,99999999' 
WAVCIS,ioos:station:WAVCIS:CSI03:3,2016-10-06T04:00:00Z,29.4412,-92.0613,10.0,8.44,213.0,,'11111222,11111222,99999999' 
WAVCIS,ioos:station:WAVCIS:CSI03:3,2016-10-06T05:00:00Z,29.4412,-92.0613,10.0,9.39,212.0,,'11111222,11111222,99999999' 
WAVCIS,ioos:station:WAVCIS:CSI03:3,2016-10-06T06:00:00Z,29.4412,-92.0613,10.0,8.81,216.0,,'11111222,11111222,99999999' 
WAVCIS,ioos:station:WAVCIS:CSI03:3,2016-10-06T07:00:00Z,29.4412,-92.0613,10.0,8.04,217.0,,'11111222,11111222,99999999' 
WAVCIS,ioos:station:WAVCIS:CSI03:3,2016-10-06T08:00:00Z,29.4412,-92.0613,10.0,7.75,213.0,,'11111222,11111222,99999999' 
WAVCIS,ioos:station:WAVCIS:CSI03:3,2016-10-06T09:00:00Z,29.4412,-92.0613,10.0,5.965,215.0,,'11111222,11111222,99999999' 
WAVCIS,ioos:station:WAVCIS:CSI03:3,2016-10-06T10:00:00Z,29.4412,-92.0613,10.0,5.954,208.0,,'11111222,11111222,99999999' 
WAVCIS,ioos:station:WAVCIS:CSI03:3,2016-10-06T11:00:00Z,29.4412,-92.0613,10.0,5.028,187.0,,'11111222,11111222,99999999' 
WAVCIS,ioos:station:WAVCIS:CSI03:3,2016-10-06T12:00:00Z,29.4412,-92.0613,10.0,5.573,163.0,,'11111222,11111222,99999999' 
WAVCIS,ioos:station:WAVCIS:CSI03:3,2016-10-06T13:00:00Z,29.4412,-92.0613,10.0,6.13,162.0,,'11111222,11111222,99999999' 
WAVCIS,ioos:station:WAVCIS:CSI03:3,2016-10-06T14:00:00Z,29.4412,-92.0613,10.0,5.825,153.0,,'11111222,11111222,99999999' 
WAVCIS,ioos:station:WAVCIS:CSI03:3,2016-10-06T15:00:00Z,29.4412,-92.0613,10.0,6.156,168.0,,'11111222,11111222,99999999' 
WAVCIS,ioos:station:WAVCIS:CSI03:3,2016-10-06T16:00:00Z,29.4412,-92.0613,10.0,6.41,186.0,,'11111222,11111222,99999999' 
WAVCIS,ioos:station:WAVCIS:CSI03:3,2016-10-06T17:00:00Z,29.4412,-92.0613,10.0,5.645,190.0,,'11111222,11111222,99999999' 
WAVCIS,ioos:station:WAVCIS:CSI03:3,2016-10-06T18:00:00Z,29.4412,-92.0613,10.0,6.833,195.0,,'11111222,11111222,99999999' 
WAVCIS,ioos:station:WAVCIS:CSI03:3,2016-10-06T19:00:00Z,29.4412,-92.0613,10.0,5.043,189.0,,'11111222,11111222,99999999' 
WAVCIS,ioos:station:WAVCIS:CSI03:3,2016-10-06T20:00:00Z,29.4412,-92.0613,10.0,3.887,202.0,,'11111222,11111222,99999999' 
WAVCIS,ioos:station:WAVCIS:CSI03:3,2016-10-06T21:00:00Z,29.4412,-92.0613,10.0,3.444,208.0,,'11111222,11111222,99999999' 
WAVCIS,ioos:station:WAVCIS:CSI03:3,2016-10-06T22:00:00Z,29.4412,-92.0613,10.0,1.758,205.0,,'11111222,11111222,99999999' 
WAVCIS,ioos:station:WAVCIS:CSI03:3,2016-10-06T23:00:00Z,29.4412,-92.0613,10.0,1.486,239.0,,'11111222,11111222,99999999' 
WAVCIS,ioos:station:WAVCIS:CSI03:3,2016-10-07T00:00:00Z,29.4412,-92.0613,10.0,4.475,155.0,,'11111222,11111222,99999999' 
WAVCIS,ioos:station:WAVCIS:CSI03:3,2016-10-07T01:00:00Z,29.4412,-92.0613,10.0,6.098,163.0,,'11111222,11111222,99999999' 
WAVCIS,ioos:station:WAVCIS:CSI03:3,2016-10-07T02:00:00Z,29.4412,-92.0613,10.0,5.035,169.0,,'11111222,11111222,99999999' 
WAVCIS,ioos:station:WAVCIS:CSI03:3,2016-10-07T03:00:00Z,29.4412,-92.0613,10.0,5.933,192.0,,'11111222,11111222,99999999' 
WAVCIS,ioos:station:WAVCIS:CSI03:3,2016-10-07T04:00:00Z,29.4412,-92.0613,10.0,6.494,206.0,,'11111222,11111222,99999999' 
WAVCIS,ioos:station:WAVCIS:CSI03:3,2016-10-07T05:00:00Z,29.4412,-92.0613,10.0,6.791,206.0,,'11111222,11111222,99999999' 
WAVCIS,ioos:station:WAVCIS:CSI03:3,2016-10-07T06:00:00Z,29.4412,-92.0613,10.0,5.662,202.0,,'11111222,11111222,99999999' 
WAVCIS,ioos:station:WAVCIS:CSI03:3,2016-10-07T07:00:00Z,29.4412,-92.0613,10.0,5.389,199.0,,'11111222,11111222,99999999' 
WAVCIS,ioos:station:WAVCIS:CSI03:3,2016-10-07T08:00:00Z,29.4412,-92.0613,10.0,4.432,196.0,,'11111222,11111222,99999999' 
WAVCIS,ioos:station:WAVCIS:CSI03:3,2016-10-07T09:00:00Z,29.4412,-92.0613,10.0,3.972,180.0,,'11111222,11111222,99999999' 
WAVCIS,ioos:station:WAVCIS:CSI03:3,2016-10-07T10:00:00Z,29.4412,-92.0613,10.0,3.62,153.0,,'11111222,11111222,99999999' 
WAVCIS,ioos:station:WAVCIS:CSI03:3,2016-10-07T11:00:00Z,29.4412,-92.0613,10.0,4.512,141.0,,'11111222,11111222,99999999' 
WAVCIS,ioos:station:WAVCIS:CSI03:3,2016-10-07T12:00:00Z,29.4412,-92.0613,10.0,4.662,135.0,,'11111222,11111222,99999999' 
WAVCIS,ioos:station:WAVCIS:CSI03:3,2016-10-07T13:00:00Z,29.4412,-92.0613,10.0,5.277,137.0,,'11111222,11111222,99999999' 
WAVCIS,ioos:station:WAVCIS:CSI03:3,2016-10-07T14:00:00Z,29.4412,-92.0613,10.0,4.566,132.0,,'11111222,11111222,99999999' 
WAVCIS,ioos:station:WAVCIS:CSI03:3,2016-10-07T15:00:00Z,29.4412,-92.0613,10.0,5.278,132.0,,'11111222,11111222,99999999' 
WAVCIS,ioos:station:WAVCIS:CSI03:3,2016-10-07T16:00:00Z,29.4412,-92.0613,10.0,5.302,129.0,,'11111222,11111222,99999999' 
WAVCIS,ioos:station:WAVCIS:CSI03:3,2016-10-07T17:00:00Z,29.4412,-92.0613,10.0,4.89,115.0,,'11111222,11111222,99999999' 
WAVCIS,ioos:station:WAVCIS:CSI03:3,2016-10-07T18:00:00Z,29.4412,-92.0613,10.0,4.35,121.0,,'11111222,11111222,99999999' 
WAVCIS,ioos:station:WAVCIS:CSI03:3,2016-10-07T19:00:00Z,29.4412,-92.0613,10.0,4.349,114.0,,'11111222,11111222,99999999' 
WAVCIS,ioos:station:WAVCIS:CSI03:3,2016-10-07T20:00:00Z,29.4412,-92.0613,10.0,4.514,112.0,,'11111222,11111222,99999999' 
WAVCIS,ioos:station:WAVCIS:CSI03:3,2016-10-07T21:00:00Z,29.4412,-92.0613,10.0,5.541,136.0,,'11111222,11111222,99999999' 
WAVCIS,ioos:station:WAVCIS:CSI03:3,2016-10-07T22:00:00Z,29.4412,-92.0613,10.0,5.036,134.0,,'11111222,11111222,99999999' 
WAVCIS,ioos:station:WAVCIS:CSI03:3,2016-10-07T23:00:00Z,29.4412,-92.0613,10.0,5.683,135.0,,'11111222,11111222,99999999' 
WAVCIS,ioos:station:WAVCIS:CSI03:3,2016-10-08T00:00:00Z,29.4412,-92.0613,10.0,4.873,127.0,,'11111222,11111222,99999999' 
WAVCIS,ioos:station:WAVCIS:CSI03:3,2016-10-08T01:00:00Z,29.4412,-92.0613,10.0,4.627,122.0,,'11111222,11111222,99999999' 
WAVCIS,ioos:station:WAVCIS:CSI03:3,2016-10-08T02:00:00Z,29.4412,-92.0613,10.0,5.497,120.0,,'11111222,11111222,99999999' 
WAVCIS,ioos:station:WAVCIS:CSI03:3,2016-10-08T03:00:00Z,29.4412,-92.0613,10.0,5.516,134.0,,'11111222,11111222,99999999' 
WAVCIS,ioos:station:WAVCIS:CSI03:3,2016-10-08T04:00:00Z,29.4412,-92.0613,10.0,4.537,126.0,,'11111222,11111222,99999999' 
WAVCIS,ioos:station:WAVCIS:CSI03:3,2016-10-08T05:00:00Z,29.4412,-92.0613,10.0,4.092,125.0,,'11111222,11111222,99999999' 
WAVCIS,ioos:station:WAVCIS:CSI03:3,2016-10-08T06:00:00Z,29.4412,-92.0613,10.0,3.889,127.0,,'11111222,11111222,99999999' 
WAVCIS,ioos:station:WAVCIS:CSI03:3,2016-10-08T07:00:00Z,29.4412,-92.0613,10.0,5.168,103.0,,'11111222,11111222,99999999' 
WAVCIS,ioos:station:WAVCIS:CSI03:3,2016-10-08T08:00:00Z,29.4412,-92.0613,10.0,6.696,109.0,,'11111222,11111222,99999999' 
WAVCIS,ioos:station:WAVCIS:CSI03:3,2016-10-08T09:00:00Z,29.4412,-92.0613,10.0,8.11,127.0,,'11111222,11111222,99999999' 
WAVCIS,ioos:station:WAVCIS:CSI03:3,2016-10-08T10:00:00Z,29.4412,-92.0613,10.0,8.04,124.0,,'11111222,11111222,99999999' 
WAVCIS,ioos:station:WAVCIS:CSI03:3,2016-10-08T11:00:00Z,29.4412,-92.0613,10.0,7.83,128.0,,'11111222,11111222,99999999' 
WAVCIS,ioos:station:WAVCIS:CSI03:3,2016-10-08T12:00:00Z,29.4412,-92.0613,10.0,7.95,130.0,,'11111222,11111222,99999999' 
WAVCIS,ioos:station:WAVCIS:CSI03:3,2016-10-08T13:00:00Z,29.4412,-92.0613,10.0,7.09,125.0,,'11111222,11111222,99999999' 
WAVCIS,ioos:station:WAVCIS:CSI03:3,2016-10-08T14:00:00Z,29.4412,-92.0613,10.0,7.21,123.0,,'11111222,11111222,99999999' 
WAVCIS,ioos:station:WAVCIS:CSI03:3,2016-10-08T15:00:00Z,29.4412,-92.0613,10.0,6.402,126.0,,'11111222,11111222,99999999' 
WAVCIS,ioos:station:WAVCIS:CSI03:3,2016-10-08T16:00:00Z,29.4412,-92.0613,10.0,5.216,125.0,,'11111222,11111222,99999999' 
WAVCIS,ioos:station:WAVCIS:CSI03:3,2016-10-08T17:00:00Z,29.4412,-92.0613,10.0,4.304,122.0,,'11111222,11111222,99999999' 
WAVCIS,ioos:station:WAVCIS:CSI03:3,2016-10-08T18:00:00Z,29.4412,-92.0613,10.0,4.446,107.0,,'11111222,11111222,99999999' 
WAVCIS,ioos:station:WAVCIS:CSI03:3,2016-10-08T19:00:00Z,29.4412,-92.0613,10.0,3.611,106.0,,'11111222,11111222,99999999' 
WAVCIS,ioos:station:WAVCIS:CSI03:3,2016-10-08T20:00:00Z,29.4412,-92.0613,10.0,3.571,124.0,,'11111222,11111222,99999999' 
WAVCIS,ioos:station:WAVCIS:CSI03:3,2016-10-08T21:00:00Z,29.4412,-92.0613,10.0,4.739,120.0,,'11111222,11111222,99999999' 
WAVCIS,ioos:station:WAVCIS:CSI03:3,2016-10-08T22:00:00Z,29.4412,-92.0613,10.0,5.331,121.0,,'11111222,11111222,99999999' 
WAVCIS,ioos:station:WAVCIS:CSI03:3,2016-10-08T23:00:00Z,29.4412,-92.0613,10.0,5.046,127.0,,'11111222,11111222,99999999' 
WAVCIS,ioos:station:WAVCIS:CSI03:3,2016-10-09T00:00:00Z,29.4412,-92.0613,10.0,6.427,119.0,,'11111222,11111222,99999999' 
WAVCIS,ioos:station:WAVCIS:CSI03:3,2016-10-09T01:00:00Z,29.4412,-92.0613,10.0,7.6,117.0,,'11111222,11111222,99999999' 
WAVCIS,ioos:station:WAVCIS:CSI03:3,2016-10-09T02:00:00Z,29.4412,-92.0613,10.0,8.52,111.0,,'11111222,11111222,99999999' 
WAVCIS,ioos:station:WAVCIS:CSI03:3,2016-10-09T03:00:00Z,29.4412,-92.0613,10.0,8.27,120.0,,'11111222,11111222,99999999' 
WAVCIS,ioos:station:WAVCIS:CSI03:3,2016-10-09T04:00:00Z,29.4412,-92.0613,10.0,8.54,121.0,,'11111222,11111222,99999999' 